• In Russia
  • List of Countries
  • For 7 days
  • Water Temperature
  • Satellite Maps
  • Weather Map
  • Weather Widgets
  • user-avatar
    Login

    Hourly Weather Balho

    Today, 22 October, Monday

    Time Temperature Precipitation Wind Pressure Humidity
    00:00 +32°C° 0 mm 5 mps 737 mmHg 64%
    01:00 +30°C° 0 mm 4 mps 737 mmHg 66%
    02:00 +30°C° 0 mm 4 mps 737 mmHg 67%
    03:00 +30°C° 0 mm 4 mps 737 mmHg 69%
    04:00 +29°C° 0 mm 4 mps 737 mmHg 70%
    05:00 +29°C° 0 mm 4 mps 737 mmHg 71%
    06:00 +29°C° 0 mm 4 mps 738 mmHg 72%
    07:00 +30°C° 0 mm 4 mps 738 mmHg 66%
    08:00 +32°C° 0 mm 4 mps 738 mmHg 60%
    09:00 +33°C° 0 mm 4 mps 738 mmHg 54%
    10:00 +34°C° 0 mm 4 mps 738 mmHg 49%
    11:00 +36°C° 0 mm 4 mps 738 mmHg 43%
    12:00 +37°C° 0 mm 5 mps 737 mmHg 38%
    13:00 +37°C° 0 mm 4 mps 737 mmHg 36%
    14:00 +38°C° 0 mm 4 mps 736 mmHg 34%
    15:00 +38°C° 0 mm 4 mps 735 mmHg 33%
    16:00 +37°C° 0 mm 5 mps 735 mmHg 35%
    17:00 +37°C° 0 mm 5 mps 735 mmHg 38%
    18:00 +36°C° 0 mm 5 mps 735 mmHg 41%
    19:00 +35°C° 0 mm 5 mps 736 mmHg 44%
    20:00 +34°C° 0 mm 5 mps 736 mmHg 48%
    21:00 +33°C° 0 mm 5 mps 737 mmHg 51%
    22:00 +32°C° 0 mm 5 mps 737 mmHg 52%
    23:00 +32°C° 0 mm 5 mps 737 mmHg 54%

    Tomorrow, 23 October, Tuesday

    Time Temperature Precipitation Wind Pressure Humidity
    00:00 +30°C° 0 mm 5 mps 737 mmHg 55%
    01:00 +30°C° 0 mm 4 mps 737 mmHg 57%
    02:00 +29°C° 0 mm 4 mps 737 mmHg 59%
    03:00 +29°C° 0 mm 4 mps 737 mmHg 60%
    04:00 +29°C° 0 mm 3 mps 737 mmHg 62%
    05:00 +28°C° 0 mm 3 mps 737 mmHg 64%
    06:00 +28°C° 0 mm 3 mps 738 mmHg 65%
    07:00 +29°C° 0 mm 4 mps 738 mmHg 60%
    08:00 +30°C° 0 mm 4 mps 739 mmHg 54%
    09:00 +33°C° 0 mm 4 mps 739 mmHg 49%
    10:00 +34°C° 0 mm 5 mps 739 mmHg 44%
    11:00 +35°C° 0 mm 5 mps 738 mmHg 39%
    12:00 +37°C° 0 mm 5 mps 738 mmHg 34%
    13:00 +37°C° 0 mm 5 mps 737 mmHg 33%
    14:00 +39°C° 0 mm 5 mps 736 mmHg 31%
    15:00 +38°C° 0 mm 4 mps 735 mmHg 30%
    16:00 +37°C° 0 mm 5 mps 735 mmHg 32%
    17:00 +37°C° 0 mm 5 mps 735 mmHg 35%
    18:00 +36°C° 0 mm 5 mps 735 mmHg 37%
    19:00 +35°C° 0 mm 5 mps 736 mmHg 41%
    20:00 +34°C° 0 mm 5 mps 736 mmHg 44%
    21:00 +33°C° 0 mm 5 mps 737 mmHg 48%
    22:00 +32°C° 0 mm 5 mps 737 mmHg 52%
    23:00 +32°C° 0 mm 5 mps 737 mmHg 55%

    Day after tomorrow, 24 October, Wednesday

    Time Temperature Precipitation Wind Pressure Humidity
    00:00 +30°C° 0 mm 5 mps 737 mmHg 58%
    01:00 +30°C° 0 mm 4 mps 737 mmHg 61%
    02:00 +29°C° 0 mm 4 mps 736 mmHg 64%
    03:00 +29°C° 0 mm 4 mps 736 mmHg 67%
    04:00 +29°C° 0 mm 4 mps 736 mmHg 68%
    05:00 +28°C° 0 mm 3 mps 737 mmHg 70%
    06:00 +28°C° 0 mm 3 mps 737 mmHg 72%
    07:00 +29°C° 0 mm 4 mps 737 mmHg 66%
    08:00 +32°C° 0 mm 4 mps 738 mmHg 60%
    09:00 +33°C° 0 mm 5 mps 738 mmHg 54%
    10:00 +34°C° 0 mm 5 mps 738 mmHg 48%
    11:00 +35°C° 0 mm 5 mps 738 mmHg 43%
    12:00 +37°C° 0 mm 5 mps 737 mmHg 38%
    13:00 +37°C° 0 mm 5 mps 736 mmHg 36%
    14:00 +39°C° 0 mm 5 mps 736 mmHg 35%
    15:00 +39°C° 0 mm 5 mps 735 mmHg 33%
    16:00 +37°C° 0 mm 5 mps 735 mmHg 36%
    17:00 +36°C° 0 mm 5 mps 735 mmHg 39%
    18:00 +36°C° 0 mm 5 mps 735 mmHg 42%
    19:00 +35°C° 0 mm 5 mps 736 mmHg 47%
    20:00 +34°C° 0 mm 5 mps 736 mmHg 52%
    21:00 +33°C° 0 mm 5 mps 737 mmHg 56%
    22:00 +32°C° 0 mm 5 mps 737 mmHg 58%
    23:00 +30°C° 0 mm 5 mps 737 mmHg 60%

    25 October, Thursday

    Time Temperature Precipitation Wind Pressure Humidity
    00:00 +30°C° 0 mm 4 mps 736 mmHg 62%
    01:00 +30°C° 0 mm 4 mps 736 mmHg 63%
    02:00 +29°C° 0 mm 4 mps 736 mmHg 65%
    03:00 +29°C° 0 mm 4 mps 735 mmHg 66%
    04:00 +29°C° 0 mm 3 mps 736 mmHg 68%
    05:00 +28°C° 0 mm 3 mps 736 mmHg 69%
    06:00 +28°C° 0 mm 3 mps 737 mmHg 70%
    07:00 +29°C° 0 mm 4 mps 737 mmHg 64%
    08:00 +32°C° 0 mm 4 mps 738 mmHg 58%
    09:00 +33°C° 0 mm 5 mps 738 mmHg 51%
    10:00 +34°C° 0 mm 5 mps 738 mmHg 46%
    11:00 +35°C° 0 mm 5 mps 737 mmHg 40%
    12:00 +37°C° 0 mm 5 mps 737 mmHg 35%
    13:00 +37°C° 0 mm 5 mps 736 mmHg 33%
    14:00 +39°C° 0 mm 5 mps 735 mmHg 31%
    15:00 +39°C° 0 mm 5 mps 735 mmHg 29%
    16:00 +37°C° 0 mm 5 mps 735 mmHg 31%
    17:00 +37°C° 0 mm 5 mps 735 mmHg 33%
    18:00 +36°C° 0 mm 5 mps 735 mmHg 35%
    19:00 +35°C° 0 mm 5 mps 736 mmHg 40%
    20:00 +34°C° 0 mm 5 mps 736 mmHg 45%
    21:00 +33°C° 0 mm 5 mps 737 mmHg 49%
    22:00 +32°C° 0 mm 5 mps 737 mmHg 52%
    23:00 +32°C° 0 mm 4 mps 737 mmHg 56%

    26 October, Friday

    Time Temperature Precipitation Wind Pressure Humidity
    00:00 +30°C° 0 mm 4 mps 736 mmHg 59%
    01:00 +30°C° 0 mm 4 mps 736 mmHg 62%
    02:00 +29°C° 0 mm 4 mps 736 mmHg 65%
    03:00 +29°C° 0 mm 4 mps 736 mmHg 68%
    04:00 +29°C° 0 mm 3 mps 736 mmHg 69%
    05:00 +29°C° 0 mm 3 mps 737 mmHg 71%
    06:00 +28°C° 0 mm 3 mps 737 mmHg 73%
    07:00 +30°C° 0 mm 4 mps 738 mmHg 67%
    08:00 +32°C° 0 mm 4 mps 738 mmHg 61%
    09:00 +33°C° 0 mm 5 mps 739 mmHg 55%
    10:00 +34°C° 0 mm 5 mps 738 mmHg 49%
    11:00 +35°C° 0 mm 5 mps 737 mmHg 44%
    12:00 +37°C° 0 mm 5 mps 737 mmHg 38%
    13:00 +37°C° 0 mm 5 mps 736 mmHg 37%
    14:00 +37°C° 0 mm 5 mps 736 mmHg 35%
    15:00 +39°C° 0 mm 6 mps 735 mmHg 34%
    16:00 +38°C° 0 mm 6 mps 735 mmHg 38%
    17:00 +36°C° 0 mm 6 mps 736 mmHg 42%
    18:00 +35°C° 0 mm 6 mps 736 mmHg 45%
    19:00 +34°C° 0 mm 5 mps 736 mmHg 50%
    20:00 +33°C° 0 mm 5 mps 737 mmHg 54%
    21:00 +32°C° 0 mm 5 mps 737 mmHg 59%
    22:00 +32°C° 0 mm 5 mps 737 mmHg 61%
    23:00 +30°C° 0 mm 5 mps 737 mmHg 64%

    27 October, Saturday

    Time Temperature Precipitation Wind Pressure Humidity
    00:00 +30°C° 0 mm 5 mps 737 mmHg 66%
    01:00 +30°C° 0 mm 5 mps 737 mmHg 67%
    02:00 +29°C° 0 mm 4 mps 737 mmHg 69%
    03:00 +29°C° 0 mm 4 mps 737 mmHg 70%
    04:00 +29°C° 0 mm 4 mps 737 mmHg 71%
    05:00 +29°C° 0 mm 4 mps 738 mmHg 72%
    06:00 +29°C° 0 mm 3 mps 738 mmHg 73%
    07:00 +30°C° 0 mm 4 mps 739 mmHg 67%
    08:00 +32°C° 0 mm 4 mps 739 mmHg 61%
    09:00 +33°C° 0 mm 5 mps 740 mmHg 55%
    10:00 +34°C° 0 mm 5 mps 739 mmHg 48%
    11:00 +36°C° 0 mm 5 mps 738 mmHg 42%
    12:00 +37°C° 0 mm 5 mps 738 mmHg 35%
    13:00 +37°C° 0 mm 5 mps 737 mmHg 33%
    14:00 +39°C° 0 mm 5 mps 736 mmHg 31%
    15:00 +39°C° 0 mm 5 mps 736 mmHg 29%
    16:00 +37°C° 0 mm 5 mps 736 mmHg 32%
    17:00 +36°C° 0 mm 5 mps 736 mmHg 35%
    18:00 +35°C° 0 mm 6 mps 736 mmHg 37%
    19:00 +34°C° 0 mm 6 mps 737 mmHg 43%
    20:00 +33°C° 0 mm 6 mps 737 mmHg 48%
    21:00 +32°C° 0 mm 6 mps 737 mmHg 53%
    22:00 +32°C° 0 mm 5 mps 737 mmHg 56%
    23:00 +30°C° 0 mm 5 mps 737 mmHg 59%

    28 October, Sunday

    Time Temperature Precipitation Wind Pressure Humidity
    00:00 +30°C° 0 mm 5 mps 737 mmHg 62%
    01:00 +30°C° 0 mm 4 mps 737 mmHg 63%
    02:00 +29°C° 0 mm 4 mps 737 mmHg 65%
    03:00 +29°C° 0 mm 3 mps 736 mmHg 66%
    04:00 +29°C° 0 mm 3 mps 737 mmHg 66%
    05:00 +28°C° 0 mm 3 mps 737 mmHg 67%
    06:00 +28°C° 0 mm 3 mps 738 mmHg 68%
    07:00 +29°C° 0 mm 3 mps 738 mmHg 60%
    08:00 +30°C° 0 mm 3 mps 739 mmHg 53%
    09:00 +33°C° 0 mm 4 mps 739 mmHg 45%
    10:00 +34°C° 0 mm 4 mps 739 mmHg 39%
    11:00 +35°C° 0 mm 4 mps 738 mmHg 33%
    12:00 +37°C° 0 mm 4 mps 738 mmHg 26%
    13:00 +37°C° 0 mm 4 mps 737 mmHg 25%
    14:00 +38°C° 0 mm 4 mps 737 mmHg 24%
    15:00 +38°C° 0 mm 4 mps 736 mmHg 23%
    16:00 +39°C° 0 mm 5 mps 736 mmHg 24%
    17:00 +37°C° 0 mm 5 mps 736 mmHg 25%
    18:00 +36°C° 0 mm 6 mps 736 mmHg 27%
    19:00 +35°C° 0 mm 6 mps 737 mmHg 30%
    20:00 +34°C° 0 mm 6 mps 737 mmHg 32%
    21:00 +33°C° 0 mm 6 mps 737 mmHg 35%
    22:00 +33°C° 0 mm 5 mps 737 mmHg 38%
    23:00 +32°C° 0 mm 5 mps 737 mmHg 41%
    Show more